Temperature
24 23 22 22 21 21 21 21 20 21 20 20 19 19 19 19 19 19 19 19 19 18 18 18 18 18 18 18 18 17 17 17 17 18 18 18 17 17 17 17 17 17 17
24 23 22 22 22 21 21 21 21 21 21 20 20 19 19 19 19 19 19 19 18 18 18 18 18 18 18 18 17 17 17 17 17 17 18 18 18 17 17 17 17 17 17
25 23 22 22 21 21 21 21 21 21 20 20 20 19 19 19 19 18 18 19 18 18 18 18 18 18 18 18 18 17 17 17 17 17 18 19 19 18 17 17 17 17 17
24 24 23 22 22 21 21 21 21 21 21 20 20 19 19 19 19 18 18 18 18 18 18 18 18 18 17 17 17 17 17 17 17 17 17 17 18 18 18 17 17 17 16
25 24 23 22 22 22 21 21 21 21 21 20 20 20 19 19 19 18 18 18 18 18 18 18 18 18 17 17 17 17 17 17 17 17 17 17 17 17 18 18 17 17 17
24 24 23 22 22 22 21 21 21 21 20 20 20 20 19 19 19 18 18 18 18 18 18 18 17 17 17 17 17 17 17 17 17 17 17 17 17 17 18 18 17 17 17
25 24 23 22 22 21 21 21 21 21 20 20 20 20 20 19 19 18 18 18 18 18 18 17 17 17 17 17 17 17 17 16 16 16 16 16 16 16 17 17 17 17 17
25 24 23 22 22 21 21 21 20 20 20 20 20 20 19 19 18 18 18 18 18 17 17 17 17 17 17 16 16 16 16 16 16 16 16 16 16 16 16 16 16 17 17
24 24 23 22 22 21 21 21 21 20 20 20 20 20 19 19 18 18 18 18 18 17 17 17 17 17 17 16 16 16 16 16 16 15 15 15 15 15 15 16 16 16 17
24 24 23 22 22 21 21 21 20 20 20 20 19 19 19 19 19 18 18 18 18 17 17 17 17 16 16 16 16 16 16 16 16 16 16 15 15 15 15 15 15 15 16
24 23 23 22 22 21 21 21 20 20 20 19 19 19 19 19 18 18 18 18 17 17 17 17 16 16 16 16 16 16 15 15 15 15 15 15 15 15 15 15 15 15 15
24 23 23 22 21 21 21 20 20 20 20 19 19 19 18 18 18 18 18 17 17 17 17 16 16 16 16 15 15 15 15 15 15 15 15 15 15 14 14 14 14 14 14
23 23 22 21 21 21 21 20 20 19 19 19 19 18 18 18 18 17 17 17 17 17 16 16 16 15 15 15 15 15 15 15 15 14 14 14 14 14 14 14 14 14 14
22 22 22 21 20 20 20 20 19 19 19 19 18 18 18 18 17 17 17 17 17 17 16 16 16 15 15 15 15 14 14 14 14 14 14 14 14 14 14 14 13 13 13
22 21 21 20 20 20 19 19 19 19 19 18 18 18 18 18 17 17 17 17 17 16 16 16 15 15 15 15 15 14 14 14 14 14 14 14 14 14 13 13 13 13 13
21 20 20 20 19 19 19 19 19 19 18 18 18 18 18 17 17 17 16 16 16 16 15 15 15 15 15 15 15 15 14 14 14 14 13 13 13 13 13 13 13 13 13
20 20 20 19 19 19 19 19 18 18 18 17 17 17 17 17 16 16 16 16 16 15 15 15 15 15 15 15 15 15 14 14 14 13 13 13 13 13 13 13 13 13 12
19 19 19 19 19 19 18 18 18 18 18 17 17 17 17 16 16 16 16 15 15 15 15 15 15 15 15 15 15 14 14 13 13 13 13 13 13 13 13 12 12 12 12
18 18 18 18 18 18 18 18 18 17 17 17 17 17 16 16 16 15 15 15 15 15 15 14 14 14 14 15 14 14 14 13 13 13 13 13 13 13 13 12 12 12 12
18 18 18 18 17 17 18 17 17 17 17 17 16 16 16 16 16 16 15 15 15 15 14 14 14 14 14 14 14 14 13 13 13 13 13 13 13 13 12 12 11 11 11
17 17 17 17 17 17 17 17 17 17 17 16 16 16 16 15 15 15 15 15 14 14 14 14 14 14 14 14 14 14 13 13 13 13 13 13 12 12 12 12 11 11 11
17 17 16 17 16 16 16 16 16 16 16 16 15 15 15 15 15 15 15 14 14 14 14 14 14 14 14 14 14 14 13 13 12 12 12 12 12 12 12 12 11 11 11
16 16 16 16 16 16 16 15 15 15 15 15 15 15 15 14 14 14 14 14 14 14 14 14 14 14 13 13 13 13 13 13 12 12 12 12 12 12 11 11 11 11 11
16 15 15 15 15 15 15 15 15 15 15 15 14 14 14 14 14 14 14 14 14 14 14 14 13 13 13 13 13 12 12 12 12 12 11 11 11 11 11 11 11 11 11
15 15 15 15 15 15 15 15 14 14 14 14 14 14 14 14 14 13 13 13 13 13 13 13 13 13 13 13 12 12 12 12 12 11 11 11 11 11 11 11 11 11 11
15 15 15 15 14 14 14 14 14 14 14 14 14 14 14 13 13 13 13 13 13 13 13 13 13 12 12 12 12 12 12 11 11 11 11 11 11 11 11 11 11 11 11
Wind_Speed
8 7 8 8 7 7 8 8 7 7 6 4 4 4 3 3 2 2 2 1 0 1 0 1 2 1 1 1 1 0 1 0 1 1 1 2 2 2 2 2 2 3 3
8 8 8 9 9 9 8 8 8 8 7 5 4 3 3 3 3 2 2 2 1 1 1 0 0 0 0 0 0 0 1 0 1 2 2 2 3 3 2 2 3 3 3
9 9 9 9 9 9 9 8 8 8 8 7 5 4 4 3 3 3 3 2 2 1 1 0 1 1 1 1 0 1 1 1 1 2 2 2 1 1 3 2 3 2 2
9 8 8 9 9 9 9 8 8 8 8 8 6 6 5 4 4 3 3 2 2 1 1 1 1 1 1 0 1 0 1 2 1 1 1 2 2 2 1 2 3 3 2
9 8 8 8 8 9 9 8 8 7 8 8 8 7 6 5 3 3 3 2 2 2 1 1 1 1 1 1 1 1 2 1 2 2 1 1 2 3 3 2 1 2 2
8 8 8 7 7 8 8 8 8 7 7 8 8 8 7 5 4 4 3 3 2 2 2 1 1 1 1 0 1 1 1 2 2 3 2 2 2 2 3 3 3 2 1
7 7 8 8 7 8 8 8 8 8 7 7 7 7 7 7 6 5 4 3 3 2 2 1 1 1 0 1 1 1 2 1 1 2 2 2 2 2 3 3 2 2 2
6 7 7 8 7 8 8 8 8 7 7 7 7 6 6 6 5 5 4 4 3 2 2 2 2 1 1 1 1 1 1 0 1 1 1 1 2 2 2 3 3 3 2
6 6 7 7 7 8 8 8 8 8 7 8 7 7 6 5 4 4 4 3 2 2 3 3 2 2 1 1 1 0 1 1 1 1 1 1 1 2 2 2 3 3 4
6 6 6 6 7 7 7 7 8 7 7 7 7 6 6 6 5 4 4 3 3 2 3 3 3 2 2 1 2 2 1 1 1 1 1 2 2 2 2 2 2 3 4
6 6 5 6 6 6 6 7 7 7 7 7 6 6 6 6 6 5 5 4 4 3 3 3 3 3 3 2 2 2 2 2 2 2 1 2 2 2 2 2 2 2 3
5 5 5 6 5 5 6 6 6 7 6 6 6 6 6 6 6 6 5 5 4 4 3 3 3 3 3 2 2 3 2 3 3 2 2 2 2 2 2 2 2 2 3
4 4 5 5 5 5 5 5 5 5 6 6 6 6 6 6 6 5 5 5 5 4 4 4 3 3 2 2 2 3 3 3 3 3 2 2 2 2 2 2 3 3 3
4 4 4 4 4 4 4 4 4 4 5 5 5 5 5 5 5 5 5 5 5 4 4 4 4 4 4 3 3 3 3 3 3 3 2 2 2 2 3 2 3 3 3
3 3 3 4 4 4 4 3 3 3 4 4 5 5 5 5 5 5 5 5 5 4 4 4 4 4 5 4 3 3 3 3 3 3 3 2 2 3 3 3 2 3 4
3 3 3 3 4 3 3 3 4 4 4 4 4 4 4 4 4 5 5 5 5 4 4 5 5 5 4 3 1 3 3 3 3 3 3 3 3 1 2 2 3 4 4
2 2 2 2 2 3 3 3 4 4 4 4 4 4 4 4 4 4 4 4 4 5 5 4 4 4 3 4 3 4 4 4 4 4 4 4 2 3 3 4 5 5 5
2 2 2 2 3 3 3 3 4 4 4 4 3 4 4 4 4 4 4 4 4 4 4 4 5 4 4 5 4 5 6 4 4 4 4 3 3 3 3 4 4 4 4
2 2 2 2 2 2 3 3 3 4 4 3 3 3 3 3 3 4 4 4 4 4 4 4 4 4 4 5 4 5 5 4 5 5 4 4 3 1 3 4 4 4 4
2 2 2 2 2 2 3 4 3 3 3 2 2 2 3 3 4 4 4 3 3 4 4 3 3 4 4 4 5 5 5 5 5 4 5 4 3 2 3 4 4 5 4
2 2 2 2 1 1 2 3 2 2 2 2 2 3 3 3 4 4 4 4 4 3 3 3 4 4 4 5 6 6 5 5 5 5 4 3 4 5 5 6 5 5 5
2 2 2 1 1 1 1 2 1 1 1 2 2 2 2 3 3 3 4 4 4 5 5 4 4 4 4 5 5 6 7 7 5 5 4 2 4 5 6 5 4 5 6
2 1 1 1 1 1 0 0 0 1 1 2 2 2 2 3 2 3 4 5 5 5 4 4 4 4 3 4 7 8 8 8 6 4 2 2 5 6 6 7 7 7 6
1 1 1 1 1 1 1 1 1 1 2 2 2 2 2 3 3 3 4 5 5 5 5 5 5 4 4 4 4 4 5 6 7 5 4 7 8 8 5 6 6 6 5
1 1 1 1 1 1 1 1 1 2 2 2 2 3 3 3 3 3 4 5 4 4 5 5 5 5 5 3 1 3 4 4 3 3 4 5 4 5 5 5 4 5 5
1 2 2 2 2 2 2 2 2 3 3 3 4 3 4 3 4 4 4 3 4 4 5 5 6 4 3 3 4 4 4 3 4 5 6 6 6 6 6 6 6 6 5
Wind_Direction
194 193 197 197 193 192 196 197 199 190 191 192 195 188 183 186 176 166 138 157 235 171 287 27 96 37 73 16 10 50 147 314 306 249 203 188 192 189 195 216 204 183 184
197 198 201 200 198 196 199 199 200 195 196 191 196 195 196 192 183 173 149 172 192 224 188 226 195 114 138 148 321 306 321 312 263 279 263 220 191 192 186 191 191 186 182
204 201 204 204 201 200 200 201 201 194 195 191 189 186 186 195 182 184 174 171 185 198 253 201 282 281 265 118 275 288 291 299 266 288 290 285 269 160 159 178 176 179 195
210 206 204 205 204 200 197 198 198 196 194 194 196 195 196 203 199 193 172 170 178 192 207 231 262 280 303 350 276 34 289 279 276 251 288 311 333 284 220 183 167 174 196
209 206 206 203 203 197 193 188 188 191 194 197 198 205 214 214 203 188 168 189 176 198 217 206 212 225 273 342 326 341 306 280 288 290 273 268 251 257 268 258 219 202 199
202 201 200 198 198 196 193 188 184 189 192 198 203 206 211 210 201 189 180 191 187 193 199 203 216 229 259 261 275 286 270 298 306 299 291 286 280 284 275 267 250 243 224
197 193 194 195 197 197 196 193 189 190 191 195 199 201 205 203 201 203 193 207 202 193 179 201 206 250 257 268 276 268 309 311 324 305 312 329 327 310 294 277 274 270 243
192 191 192 194 195 196 195 192 188 190 191 193 196 198 199 205 203 204 208 202 210 201 173 187 189 214 240 243 236 258 259 249 273 307 325 310 315 306 298 289 281 271 252
189 188 187 187 188 191 191 190 187 190 193 194 192 197 198 202 196 189 202 204 198 190 176 185 193 198 217 248 256 266 277 253 256 262 244 273 304 305 311 308 297 287 283
188 190 185 182 185 188 188 189 189 191 191 192 194 188 186 190 191 194 190 193 193 193 189 189 194 197 202 215 248 234 230 236 256 280 306 290 299 308 305 308 305 293 290
193 188 184 177 177 179 179 183 187 189 191 188 187 188 187 187 189 193 193 194 198 194 194 196 202 207 212 216 235 258 250 244 254 261 248 257 290 295 295 295 294 290 284
193 186 178 170 169 170 172 172 183 187 186 182 181 187 191 193 194 193 191 192 197 202 198 201 205 216 215 219 230 247 250 247 249 251 243 255 251 261 281 282 281 280 279
186 185 176 168 167 167 169 170 180 185 180 179 183 187 195 195 196 193 191 193 199 203 202 202 206 215 221 222 234 248 255 256 262 261 251 263 271 272 280 279 280 276 271
184 184 175 167 162 159 162 174 182 181 175 177 182 183 188 184 188 189 191 196 198 200 203 207 208 212 217 220 228 241 251 262 264 262 262 271 271 272 277 269 266 270 274
182 180 177 166 163 161 163 171 177 173 162 166 178 177 177 175 180 184 188 189 197 201 202 210 210 215 217 219 224 240 239 252 264 261 263 263 293 326 311 299 291 280 278
180 181 177 167 165 165 165 162 168 165 163 170 172 166 167 172 180 185 188 189 193 204 209 217 217 222 223 129 182 256 247 244 250 256 258 249 234 250 255 294 301 296 281
166 161 161 159 153 156 159 165 168 161 163 166 167 169 174 183 192 196 190 195 197 204 214 221 223 226 199 154 193 243 252 248 249 250 252 257 242 243 260 238 233 245 255
147 148 156 155 155 151 148 153 154 155 162 166 165 171 180 183 186 191 200 205 208 211 219 221 223 228 203 168 192 230 240 248 249 248 249 257 263 275 277 268 263 254 245
116 129 145 148 146 148 146 150 162 159 161 166 169 171 175 179 185 196 204 207 205 211 219 219 223 225 197 171 191 235 240 242 246 241 240 249 253 272 273 262 262 262 255
90 103 114 118 118 136 155 154 166 166 168 176 180 180 184 192 203 208 206 202 207 213 220 214 217 223 219 180 191 229 242 242 244 235 230 219 239 229 244 257 260 261 265
94 99 103 96 89 122 141 149 160 177 181 180 174 183 199 205 210 210 205 207 213 212 218 214 215 221 221 195 200 227 247 248 247 245 244 226 177 211 237 257 261 269 276
88 91 97 83 72 90 134 155 178 198 188 181 184 189 210 229 214 209 210 212 216 213 215 220 229 221 211 208 208 220 243 269 253 256 258 237 178 219 236 251 260 259 262
65 63 74 77 62 56 87 209 281 202 185 189 205 214 221 229 222 216 217 219 220 230 234 232 236 231 220 206 197 211 229 250 254 260 280 237 221 234 236 226 234 243 249
69 56 52 49 30 357 328 299 287 251 215 219 234 239 240 242 232 235 234 233 234 238 245 248 247 241 226 226 222 227 224 225 238 247 214 207 219 234 246 231 229 242 251
360 328 309 321 321 308 296 281 272 257 239 243 255 257 252 252 248 248 259 255 251 254 256 259 257 252 246 236 260 248 242 247 252 260 253 247 242 245 243 244 246 248 245
321 301 296 302 303 291 278 280 273 259 250 249 256 262 262 256 254 252 259 266 256 240 237 247 257 257 249 210 217 233 245 238 230 245 252 251 249 249 250 249 247 245 248
Height
1522 1523 1524 1525 1526 1527 1528 1529 1531 1532 1533 1534 1536 1536 1537 1538 1538 1538 1538 1538 1537 1538 1537 1538 1537 1537 1537 1536 1537 1536 1536 1536 1535 1536 1535 1535 1535 1535 1535 1536 1536 1536 1537
1519 1521 1522 1523 1525 1525 1526 1528 1529 1530 1531 1533 1534 1535 1536 1537 1537 1537 1537 1537 1537 1537 1537 1536 1537 1537 1536 1536 1535 1535 1536 1536 1535 1536 1535 1535 1536 1534 1535 1534 1534 1535 1536
1516 1518 1520 1521 1522 1523 1524 1526 1527 1528 1529 1531 1532 1534 1534 1535 1536 1536 1536 1536 1536 1536 1536 1536 1536 1536 1536 1536 1535 1534 1535 1535 1535 1535 1535 1534 1533 1534 1534 1533 1533 1534 1534
1513 1515 1517 1518 1520 1521 1522 1523 1525 1526 1527 1529 1530 1532 1533 1534 1534 1535 1535 1535 1535 1535 1535 1535 1535 1535 1535 1535 1535 1534 1534 1534 1535 1534 1533 1534 1533 1533 1533 1533 1533 1533 1533
1510 1512 1514 1515 1517 1519 1520 1521 1522 1523 1525 1527 1528 1529 1531 1532 1533 1533 1533 1534 1534 1534 1534 1534 1533 1533 1534 1534 1533 1533 1533 1534 1534 1534 1533 1533 1532 1533 1532 1532 1533 1532 1532
1507 1510 1512 1513 1515 1516 1518 1519 1520 1521 1522 1524 1526 1527 1528 1529 1530 1531 1532 1533 1533 1533 1533 1533 1532 1532 1533 1532 1532 1532 1532 1532 1532 1532 1533 1532 1532 1532 1532 1531 1531 1531 1531
1505 1507 1509 1510 1512 1513 1515 1517 1518 1519 1520 1521 1523 1524 1526 1527 1528 1529 1530 1531 1532 1532 1531 1532 1531 1531 1531 1531 1531 1531 1531 1531 1530 1530 1531 1531 1531 1531 1531 1530 1530 1529 1529
1502 1504 1506 1508 1509 1511 1512 1514 1515 1516 1518 1519 1520 1522 1523 1525 1526 1527 1528 1529 1530 1530 1530 1530 1530 1530 1530 1530 1530 1530 1530 1529 1529 1529 1529 1529 1529 1529 1529 1529 1529 1528 1528
1501 1503 1504 1506 1507 1508 1510 1512 1513 1514 1515 1517 1519 1520 1521 1522 1524 1525 1526 1527 1527 1528 1528 1528 1528 1528 1528 1528 1528 1528 1528 1528 1528 1528 1528 1528 1528 1528 1527 1527 1527 1527 1526
1499 1501 1502 1504 1505 1506 1508 1510 1511 1512 1514 1515 1516 1518 1519 1520 1522 1523 1524 1525 1525 1526 1526 1526 1526 1527 1527 1527 1527 1527 1526 1526 1526 1526 1525 1525 1526 1526 1525 1525 1525 1525 1525
1497 1499 1501 1502 1504 1505 1506 1508 1509 1510 1512 1513 1514 1516 1517 1518 1520 1521 1522 1523 1523 1524 1524 1524 1524 1525 1525 1524 1525 1525 1525 1525 1524 1524 1524 1523 1523 1524 1524 1523 1523 1522 1523
1496 1498 1499 1501 1502 1504 1505 1506 1507 1509 1510 1511 1512 1513 1515 1516 1517 1519 1519 1520 1521 1521 1521 1522 1522 1523 1523 1523 1523 1523 1523 1523 1522 1522 1522 1522 1522 1521 1521 1521 1520 1520 1520
1495 1497 1498 1499 1501 1502 1503 1505 1506 1507 1508 1509 1510 1512 1513 1514 1515 1516 1517 1518 1518 1518 1519 1519 1520 1520 1521 1521 1521 1521 1521 1520 1520 1520 1520 1520 1520 1519 1519 1518 1518 1518 1518
1495 1496 1497 1498 1499 1500 1501 1503 1504 1505 1506 1507 1508 1509 1509 1510 1512 1513 1514 1515 1515 1516 1516 1517 1517 1518 1518 1519 1519 1519 1518 1518 1518 1518 1518 1518 1517 1517 1516 1516 1515 1515 1515
1494 1495 1496 1496 1497 1498 1499 1500 1501 1503 1503 1505 1506 1507 1507 1508 1509 1510 1511 1512 1513 1513 1514 1514 1515 1515 1516 1517 1517 1517 1517 1516 1516 1516 1515 1515 1515 1514 1514 1514 1513 1512 1512
1493 1493 1494 1495 1496 1497 1498 1498 1499 1500 1501 1502 1503 1504 1505 1506 1507 1508 1509 1509 1510 1510 1511 1511 1512 1513 1514 1514 1514 1514 1514 1514 1513 1513 1513 1513 1512 1511 1510 1510 1509 1509 1509
1491 1492 1493 1494 1495 1495 1496 1497 1498 1499 1500 1501 1501 1502 1502 1503 1504 1505 1506 1506 1507 1508 1508 1509 1509 1510 1510 1511 1511 1511 1511 1512 1511 1511 1510 1511 1510 1509 1508 1507 1506 1505 1505
1491 1491 1492 1493 1494 1494 1495 1495 1496 1497 1498 1499 1499 1500 1501 1501 1502 1503 1503 1504 1505 1505 1505 1506 1506 1506 1507 1508 1508 1508 1508 1509 1509 1508 1508 1507 1506 1506 1505 1505 1504 1503 1502
1490 1491 1491 1492 1492 1493 1493 1494 1495 1495 1496 1497 1497 1498 1498 1499 1500 1500 1501 1502 1502 1502 1503 1503 1503 1503 1504 1504 1505 1505 1506 1506 1505 1505 1505 1504 1503 1502 1502 1501 1500 1499 1499
1489 1489 1490 1491 1491 1491 1492 1492 1493 1494 1494 1495 1495 1496 1496 1497 1498 1498 1499 1499 1499 1499 1500 1500 1500 1500 1500 1501 1501 1501 1502 1502 1502 1501 1501 1500 1500 1499 1499 1498 1497 1496 1496
1488 1488 1489 1490 1490 1490 1491 1491 1492 1492 1492 1493 1493 1494 1494 1495 1495 1496 1496 1496 1496 1497 1497 1497 1497 1497 1497 1497 1497 1497 1497 1497 1498 1498 1498 1497 1496 1496 1495 1495 1494 1493 1492
1487 1487 1488 1489 1489 1489 1489 1489 1490 1490 1490 1491 1491 1491 1492 1493 1493 1493 1493 1493 1494 1494 1493 1494 1493 1493 1493 1493 1493 1493 1493 1493 1494 1494 1494 1494 1493 1492 1492 1491 1490 1490 1489
1486 1486 1487 1487 1487 1488 1488 1488 1488 1488 1488 1489 1489 1489 1489 1490 1490 1490 1490 1490 1490 1491 1490 1490 1490 1489 1489 1489 1488 1489 1489 1489 1490 1490 1489 1489 1489 1488 1488 1487 1487 1486 1486
1486 1486 1486 1486 1486 1487 1486 1486 1486 1486 1486 1486 1487 1486 1487 1487 1487 1487 1487 1488 1488 1487 1487 1487 1486 1486 1485 1485 1485 1485 1485 1485 1486 1486 1485 1485 1485 1484 1484 1484 1483 1483 1483
1485 1485 1485 1485 1485 1485 1485 1485 1485 1484 1484 1484 1484 1485 1485 1484 1484 1483 1483 1484 1483 1483 1483 1483 1482 1482 1481 1481 1481 1481 1481 1482 1482 1481 1481 1481 1481 1481 1481 1481 1481 1480 1479
1484 1484 1484 1484 1484 1483 1483 1482 1482 1482 1482 1482 1482 1482 1482 1481 1481 1480 1480 1479 1479 1479 1478 1478 1478 1477 1477 1476 1476 1476 1477 1477 1478 1478 1478 1478 1478 1478 1477 1477 1476 1476 1476